sat.trackr.live / text

‹ back to catalog

IRIDIUM 148

NORAD 43255 · 2018-030G

PAYLOAD ACTIVE UNKNOWN

§ Identity

Operator
Country
US
Launch date
2018-03-30
Launch site
AFWTR
Launch vehicle
Mass (kg)
RCS (m²)

Purposes: comms

External: N2YO · Heavens-Above · Gunter

§ Orbital elements

Epoch: 2026-05-24T23:29:15.332352Z

Period
100.40 min
Inclination
86.3935°
Eccentricity
0.0001981
Mean motion
14.34218138 rev/d
Perigee alt
776.2 km
Apogee alt
779.1 km
Semi-major
7,155.8 km
B*
-1.7301e-5
RAAN
300.1682°
Arg perigee
95.0457°
Mean anomaly
265.0965°
Rev number
42,684

§ Raw data

IRIDIUM 1481 43255U 18030G   26144.97864968 -.00000029  00000+0 -17301-4 0  99932 43255  86.3935 300.1682 0001981  95.0457 265.0965 14.34218138426846

JSON: /api/v1/satellites/43255 · /tle

For live sub-satellite position, see the globe view (requires WebGL).

§ Visibility from observer

Set your observer location to see the next 7 days of passes ≥ 10°. The values pass through the URL so the page stays shareable.

No JS? Fill the form by hand. The geolocation button needs JavaScript.